Location: Allens Landing
(37.8284°N, 89.7284°W)
Time: 21:43:19
(UTC+00:00)

Courier 1B - Pass Details

Date: 19 November 2024
Orbit: 962 x 1208 km, 28.3° (Epoch: 03 December)

Event Time Altitude Azimuth Distance (km) Brightness Sun altitude
Rises 23:54:52 0° 256° (WSW) 3,636 12.5 -13.8°
Reaches altitude 10° 00:00:21 10° 218° (SW) 2,684 10.6 -14.9°
Maximum altitude 00:01:28 10° 208° (SSW) 2,653 10.4 -15.1°
Drops below altitude 10° 00:02:34 10° 198° (SSW) 2,689 10.2 -15.3°
Sets 00:08:07 0° 160° (SSE) 3,666 10.4 -16.4°
